TimeCST,TemperatureF,Dew PointF,Humidity,Sea Level PressureIn,VisibilityMPH,Wind Direction,Wind SpeedMPH,Gust SpeedMPH,PrecipitationIn,Events,Conditions,WindDirDegrees,DateUTC
12:15 AM,35.1,28.2,76,30.12,10.0,Calm,Calm,-,N/A,,Clear,0,2013-01-21 06:15:00
12:35 AM,34.2,27.9,78,30.12,10.0,Calm,Calm,-,N/A,,Clear,0,2013-01-21 06:35:00
12:55 AM,34.2,28.2,79,30.12,10.0,WSW,3.5,-,N/A,,Clear,240,2013-01-21 06:55:00
1:15 AM,33.8,27.9,79,30.12,10.0,West,5.8,-,N/A,,Clear,260,2013-01-21 07:15:00
1:35 AM,33.8,27.5,78,30.13,10.0,West,9.2,-,N/A,,Clear,280,2013-01-21 07:35:00
1:55 AM,35.8,28.4,75,30.14,10.0,WNW,9.2,-,N/A,,Clear,290,2013-01-21 07:55:00
2:15 AM,37.6,27.9,68,30.15,10.0,NW,6.9,-,N/A,,Clear,320,2013-01-21 08:15:00
2:35 AM,35.8,27.5,72,30.16,10.0,NW,6.9,-,N/A,,Clear,320,2013-01-21 08:35:00
2:55 AM,34.5,27.3,75,30.16,10.0,WNW,9.2,-,N/A,,Clear,290,2013-01-21 08:55:00
3:15 AM,35.2,26.4,70,30.17,10.0,WNW,9.2,-,N/A,,Clear,300,2013-01-21 09:15:00
3:35 AM,35.2,26.1,69,30.19,10.0,NW,10.4,-,N/A,,Clear,310,2013-01-21 09:35:00
3:55 AM,35.2,25.5,68,30.19,10.0,NW,9.2,-,N/A,,Clear,310,2013-01-21 09:55:00
4:15 AM,36.5,23.9,60,30.20,10.0,NW,10.4,-,N/A,,Clear,310,2013-01-21 10:15:00
4:55 AM,34.7,23.5,64,30.21,10.0,WNW,10.4,-,N/A,,Clear,290,2013-01-21 10:55:00
5:15 AM,35.2,22.5,60,30.22,10.0,WNW,9.2,-,N/A,,Clear,290,2013-01-21 11:15:00
5:35 AM,35.1,22.1,59,30.23,10.0,WNW,9.2,-,N/A,,Clear,290,2013-01-21 11:35:00
5:55 AM,34.7,22.1,60,30.24,10.0,WNW,8.1,-,N/A,,Clear,290,2013-01-21 11:55:00
6:15 AM,34.2,22.1,61,30.24,10.0,WNW,8.1,-,N/A,,Clear,290,2013-01-21 12:15:00
6:35 AM,34.0,22.1,62,30.25,10.0,WNW,8.1,-,N/A,,Clear,290,2013-01-21 12:35:00
6:55 AM,33.3,22.1,64,30.25,10.0,WNW,8.1,-,N/A,,Clear,300,2013-01-21 12:55:00
7:15 AM,32.7,22.1,65,30.25,10.0,NW,9.2,-,N/A,,Clear,310,2013-01-21 13:15:00
7:35 AM,32.9,21.9,64,30.26,10.0,WNW,8.1,-,N/A,,Clear,300,2013-01-21 13:35:00
7:55 AM,32.5,21.7,64,30.27,10.0,NW,9.2,-,N/A,,Clear,310,2013-01-21 13:55:00
8:15 AM,32.5,21.6,64,30.27,10.0,NW,8.1,-,N/A,,Clear,310,2013-01-21 14:15:00
8:35 AM,33.8,21.6,61,30.28,10.0,NW,9.2,-,N/A,,Clear,310,2013-01-21 14:35:00
8:55 AM,35.2,21.9,58,30.29,10.0,NW,6.9,-,N/A,,Clear,310,2013-01-21 14:55:00
9:15 AM,36.9,22.1,55,30.30,10.0,NW,10.4,-,N/A,,Clear,320,2013-01-21 15:15:00
9:35 AM,37.9,23.2,55,30.31,10.0,NW,10.4,-,N/A,,Clear,310,2013-01-21 15:35:00
9:55 AM,38.8,23.9,55,30.32,10.0,NW,11.5,-,N/A,,Clear,320,2013-01-21 15:55:00
10:15 AM,39.7,25.0,56,30.33,10.0,NW,8.1,-,N/A,,Clear,320,2013-01-21 16:15:00
10:35 AM,40.3,25.5,56,30.33,10.0,WNW,5.8,-,N/A,,Clear,300,2013-01-21 16:35:00
10:55 AM,41.5,26.2,55,30.34,10.0,NNW,5.8,-,N/A,,Clear,330,2013-01-21 16:55:00
11:15 AM,41.5,26.2,55,30.33,10.0,NW,5.8,-,N/A,,Clear,310,2013-01-21 17:15:00
12:15 PM,45.5,27.9,50,30.31,10.0,WNW,5.8,-,N/A,,Clear,300,2013-01-21 18:15:00
12:35 PM,46.6,28.2,49,30.30,10.0,NNW,8.1,-,N/A,,Clear,340,2013-01-21 18:35:00
1:35 PM,50.2,30.0,46,30.25,10.0,NNW,6.9,-,N/A,,Clear,340,2013-01-21 19:35:00
2:15 PM,51.8,30.0,43,30.23,10.0,NNW,5.8,-,N/A,,Clear,330,2013-01-21 20:15:00
2:55 PM,53.1,29.3,40,30.22,10.0,NW,4.6,-,N/A,,Clear,320,2013-01-21 20:55:00
3:35 PM,54.5,29.3,38,30.21,10.0,Calm,Calm,-,N/A,,Clear,0,2013-01-21 21:35:00
3:55 PM,54.9,29.1,37,30.21,10.0,North,5.8,-,N/A,,Clear,10,2013-01-21 21:55:00
4:15 PM,54.9,28.9,37,30.20,10.0,Calm,Calm,-,N/A,,Clear,0,2013-01-21 22:15:00
4:35 PM,55.6,29.3,37,30.20,10.0,ENE,5.8,-,N/A,,Clear,60,2013-01-21 22:35:00
4:55 PM,55.6,28.6,36,30.20,10.0,Calm,Calm,-,N/A,,Clear,0,2013-01-21 22:55:00
5:15 PM,55.6,28.9,36,30.20,10.0,Calm,Calm,-,N/A,,Clear,0,2013-01-21 23:15:00
5:55 PM,54.7,29.3,38,30.19,10.0,Calm,Calm,-,N/A,,Clear,0,2013-01-21 23:55:00
6:15 PM,53.2,28.9,39,30.19,10.0,Calm,Calm,-,N/A,,Clear,0,2013-01-22 00:15:00
6:55 PM,49.5,30.2,48,30.20,10.0,Calm,Calm,-,N/A,,Clear,0,2013-01-22 00:55:00
7:15 PM,47.7,30.6,52,30.20,10.0,SE,3.5,-,N/A,,Clear,140,2013-01-22 01:15:00
8:15 PM,42.1,30.9,65,30.21,10.0,South,5.8,-,N/A,,Clear,180,2013-01-22 02:15:00
8:35 PM,41.0,31.1,68,30.22,10.0,SSW,5.8,-,N/A,,Clear,200,2013-01-22 02:35:00
8:55 PM,40.1,31.1,70,30.22,10.0,SSW,5.8,-,N/A,,Clear,210,2013-01-22 02:55:00
9:35 PM,37.8,29.3,72,30.22,10.0,SW,5.8,-,N/A,,Clear,220,2013-01-22 03:35:00
10:15 PM,36.5,29.3,75,30.22,10.0,Calm,Calm,-,N/A,,Clear,0,2013-01-22 04:15:00
10:35 PM,35.8,28.6,75,30.22,10.0,Calm,Calm,-,N/A,,Clear,0,2013-01-22 04:35:00
10:55 PM,35.1,28.6,77,30.22,10.0,Calm,Calm,-,N/A,,Clear,0,2013-01-22 04:55:00
11:15 PM,35.6,28.9,77,30.22,10.0,Calm,Calm,-,N/A,,Clear,0,2013-01-22 05:15:00
11:35 PM,34.7,28.0,77,30.22,10.0,Calm,Calm,-,N/A,,Clear,0,2013-01-22 05:35:00
11:55 PM,32.5,27.9,83,30.21,10.0,Calm,Calm,-,N/A,,Clear,0,2013-01-22 05:55:00